Location: Home
(42.5358°N, 72.7383°W)
Time: 14:00:02
(UTC-05:00)

deb Explorer IX - All Passes

Search period start: 30 November 2021 00:00
Search period end: 10 December 2021 00:00
Orbit: 546 x 1086 km, 38.8° (Epoch: 29 November)

Date Brightness Start Highest point End Pass type
(mag) Time Alt. Az. Time Alt. Az. Time Alt. Az.
30 Nov - 10:07:33 10° S 10:09:15 12° SSE 10:10:55 10° SE daylight
30 Nov - 11:51:22 10° SW 11:55:13 34° SSE 11:58:56 10° E daylight
30 Nov - 13:37:27 10° WSW 13:41:26 51° S 13:45:29 10° ESE daylight
30 Nov - 15:23:57 10° W 15:27:40 33° SSW 15:31:37 10° SE daylight
30 Nov - 17:12:05 10° SW 17:13:40 12° SSW 17:15:17 10° S visible
01 Dec - 09:42:28 10° S 09:44:22 12° SSE 09:46:11 10° SE daylight
01 Dec - 11:26:26 10° SW 11:30:22 34° SSE 11:34:06 10° E daylight
01 Dec - 13:12:34 10° WSW 13:16:36 51° S 13:20:36 10° ESE daylight
01 Dec - 14:59:07 10° W 15:02:49 33° SSW 15:06:40 10° SE daylight
01 Dec - 16:47:24 10° SW 16:48:46 11° SSW 16:50:11 10° SSW visible
02 Dec - 09:17:23 10° S 09:19:28 13° SSE 09:21:27 10° ESE daylight
02 Dec - 11:01:27 10° SW 11:05:31 34° SSE 11:09:17 10° E daylight
02 Dec - 12:47:40 10° WSW 12:51:45 51° S 12:55:43 10° ESE daylight
02 Dec - 14:34:16 10° W 14:37:57 32° SSW 14:41:43 10° SE daylight
02 Dec - 16:22:41 10° SW 16:23:53 11° SSW 16:25:05 10° SSW daylight
03 Dec - 08:52:15 10° S 08:54:34 13° SSE 08:56:44 10° ESE daylight
03 Dec - 10:36:27 10° SW 10:40:37 35° SSE 10:44:28 10° E daylight
03 Dec - 12:22:43 10° WSW 12:26:53 51° S 12:30:52 10° ESE daylight
03 Dec - 14:09:24 10° W 14:13:05 32° SSW 14:16:49 10° SE daylight
03 Dec - 15:57:56 10° SW 15:58:59 11° SSW 16:00:02 10° SSW daylight
04 Dec - 08:27:06 10° S 08:29:38 14° SSE 08:32:00 10° ESE daylight
04 Dec - 10:11:24 10° SW 10:15:44 35° SSE 10:19:39 10° E daylight
04 Dec - 11:57:45 10° WSW 12:02:00 52° S 12:06:00 10° ESE daylight
04 Dec - 13:44:29 10° W 13:48:13 33° SSW 13:51:55 10° SE daylight
04 Dec - 15:33:08 10° SW 15:34:04 11° SSW 15:35:02 10° SSW daylight
05 Dec - 08:01:56 10° S 08:04:41 14° SSE 08:07:15 10° ESE daylight
05 Dec - 09:46:20 10° SW 09:50:49 36° SSE 09:54:49 10° E daylight
05 Dec - 11:32:45 10° WSW 11:37:08 52° S 11:41:09 10° ESE daylight
05 Dec - 13:19:32 10° W 13:23:20 33° SSW 13:27:02 10° SE daylight
05 Dec - 15:08:15 10° SW 15:09:11 11° SSW 15:10:06 10° SSW daylight
06 Dec - 07:36:43 10° S 07:39:43 15° SSE 07:42:29 10° ESE daylight
06 Dec - 09:21:14 10° SW 09:25:53 37° SSE 09:30:00 10° E daylight
06 Dec - 11:07:42 10° WSW 11:12:13 53° S 11:16:19 10° ESE daylight
06 Dec - 12:54:34 10° W 12:58:27 34° SSW 13:02:09 10° SE daylight
06 Dec - 14:43:17 10° SW 14:44:15 11° SSW 14:45:14 10° SSW daylight
07 Dec - 07:11:30 10° S 07:14:43 16° SSE 07:17:42 10° ESE daylight
07 Dec - 08:56:05 10° SW 09:00:56 38° SSE 09:05:10 10° E daylight
07 Dec - 10:42:38 10° WSW 10:47:18 54° S 10:51:28 10° ESE daylight
07 Dec - 12:29:33 10° W 12:33:33 34° SSW 12:37:17 10° SE daylight
07 Dec - 14:18:15 10° SW 14:19:20 11° SSW 14:20:25 10° SSW daylight
08 Dec - 06:46:16 10° S 06:49:43 16° SSE 06:52:53 10° ESE daylight
08 Dec - 08:30:55 10° SW 08:35:57 38° SSE 08:40:20 10° E daylight
08 Dec - 10:17:31 10° WSW 10:22:22 55° S 10:26:37 10° ESE daylight
08 Dec - 12:04:30 10° W 12:08:37 35° SSW 12:12:25 10° SE daylight
08 Dec - 13:53:09 10° SW 13:54:24 11° SW 13:55:39 10° SSW daylight
09 Dec - 06:21:01 10° S 06:24:41 17° SSE 06:28:03 10° ESE visible
09 Dec - 08:05:44 10° SW 08:10:57 39° SSE 08:15:29 10° E daylight
09 Dec - 09:52:22 10° WSW 09:57:24 55° S 10:01:47 10° ESE daylight
09 Dec - 11:39:25 10° W 11:43:41 36° SSW 11:47:34 10° SE daylight
09 Dec - 13:28:00 10° SW 13:29:28 12° SW 13:30:54 10° SSW daylight
